Wetbulb
43.85 44.22 44.28 43.84 44.06 44.37 44.12 44.01 43.90 44.86 44.62 44.94 45.40 46.09 46.96 47.89 49.02 49.63 50.39 51.16 50.71 50.96 51.94 51.33 50.77 51.13 50.62 50.25 48.95 48.15 47.15 46.48 43.52 46.88 48.23 45.73 39.46 37.96 37.30 37.43 38.36 38.66 38.44
41.97 42.30 41.75 41.67 41.74 41.49 41.09 40.98 41.20 40.99 41.69 41.72 42.10 42.69 43.38 44.11 44.97 45.48 46.16 47.44 47.56 47.41 47.97 48.53 48.82 49.37 48.48 49.30 49.00 47.20 46.55 46.63 44.51 43.26 45.48 45.29 37.58 37.40 38.65 36.92 36.02 36.08 36.50
40.94 41.23 40.82 40.14 40.07 39.73 39.39 39.56 39.78 39.56 40.20 40.54 40.31 40.06 40.16 40.92 41.50 42.70 43.51 44.33 45.22 45.31 45.45 45.14 46.03 46.74 45.43 46.11 46.41 46.38 46.48 45.55 45.19 43.14 43.12 45.02 36.60 33.49 33.56 33.67 33.54 33.93 34.52
39.66 39.49 38.81 38.28 37.92 38.18 38.37 38.26 38.16 38.54 38.79 38.69 38.90 38.45 38.59 38.59 39.17 39.84 39.72 40.92 41.37 42.06 43.11 43.58 43.62 43.95 43.65 43.54 43.34 43.63 43.72 43.36 42.18 41.19 41.17 41.52 37.71 31.25 32.57 30.91 30.30 31.78 31.85
38.19 37.78 36.83 36.75 36.65 36.53 36.21 35.83 36.02 36.37 36.56 36.64 36.19 36.89 37.46 37.58 36.66 37.47 37.79 38.05 38.17 38.69 39.76 40.32 41.02 40.76 38.82 40.92 41.68 42.28 41.00 40.15 40.25 39.54 38.61 39.24 33.89 28.43 29.34 30.47 30.69 30.83 30.39
36.18 35.27 34.97 34.65 33.95 34.16 33.86 33.35 33.56 34.06 34.79 34.95 35.15 35.08 34.83 34.79 35.84 36.31 37.07 36.40 36.07 35.97 36.44 37.75 38.58 36.19 37.58 38.98 39.73 40.24 40.36 37.85 35.91 37.00 38.14 37.36 36.99 34.00 31.67 30.21 29.25 26.33 25.68
34.80 33.29 32.52 32.42 32.37 32.37 31.86 31.99 32.19 32.77 33.29 32.88 33.60 34.07 34.09 34.91 35.01 35.68 35.92 36.02 36.32 35.98 35.58 35.53 35.70 36.20 35.07 36.38 37.15 37.72 37.54 38.04 39.08 37.24 35.40 36.08 36.13 35.06 31.52 29.59 29.48 29.63 30.01
33.40 32.45 31.61 31.43 31.08 30.98 30.82 30.80 31.33 32.00 31.60 31.75 32.42 32.72 33.09 33.42 34.54 34.80 34.86 35.52 36.08 36.25 36.63 36.69 36.16 35.72 36.24 35.07 34.75 34.16 34.30 34.73 34.70 34.52 34.69 35.05 35.54 33.33 33.19 32.49 31.94 31.16 30.25
31.69 31.06 30.28 29.81 28.75 28.88 28.20 29.49 29.97 29.90 30.37 31.18 31.72 32.22 32.06 32.61 33.65 33.73 33.77 34.16 33.59 33.72 34.76 35.59 35.50 34.54 34.81 35.02 33.56 32.70 32.87 33.29 34.93 36.15 36.77 37.68 36.99 36.73 33.82 32.05 29.70 27.57 26.52
29.17 28.81 29.12 29.25 28.80 27.67 28.37 28.34 29.23 29.21 29.01 29.93 30.14 31.64 31.29 31.61 32.71 32.79 32.84 33.19 31.37 31.51 32.56 32.97 33.02 34.23 33.85 34.08 32.44 32.22 31.22 32.30 32.17 32.08 32.23 33.01 33.57 33.32 34.19 32.41 31.25 27.87 26.32
27.22 27.24 27.15 27.43 27.77 29.02 29.35 30.66 30.48 30.34 30.16 30.63 29.54 30.48 30.80 31.27 31.25 31.63 32.21 32.26 30.88 30.81 31.96 32.80 33.28 32.54 32.57 33.37 34.05 32.43 32.43 33.16 32.43 31.90 31.97 31.83 31.96 31.68 31.85 32.31 32.29 31.89 30.03
24.83 24.13 24.28 24.02 25.42 28.08 28.85 29.84 31.05 31.30 31.05 30.54 29.01 28.62 30.41 30.90 30.33 30.77 31.28 32.17 32.76 32.03 31.67 31.73 32.03 32.69 33.31 33.65 33.82 34.64 34.39 33.12 32.39 31.83 31.41 30.66 29.89 29.98 29.87 28.83 27.73 27.08 27.81
20.72 20.28 21.09 22.74 23.49 25.27 26.16 27.93 28.62 29.90 30.37 29.85 28.24 27.75 28.31 29.73 31.11 30.44 30.35 32.82 33.27 31.79 31.73 31.36 31.60 31.93 32.46 33.29 33.46 33.40 31.54 32.16 31.65 31.03 29.83 28.57 28.36 27.07 26.78 25.02 23.84 23.06 21.48
17.96 19.52 21.12 21.78 22.98 23.89 25.71 26.74 27.73 28.21 28.82 28.95 28.94 27.84 28.40 29.26 30.35 30.75 31.47 32.83 31.02 31.16 31.23 30.92 31.11 31.75 33.10 31.39 31.35 31.55 31.80 31.63 31.12 30.10 28.60 28.26 28.48 27.50 25.38 25.50 24.06 23.84 21.35
16.97 18.19 20.00 21.34 21.41 21.59 23.04 24.39 26.00 28.17 29.43 29.03 29.89 29.50 28.64 28.89 30.34 30.79 31.51 32.38 32.14 31.18 29.67 31.51 30.59 31.08 30.25 29.90 29.65 30.35 31.44 31.63 30.27 29.96 29.03 27.55 26.53 25.36 23.43 24.17 23.39 23.22 20.77
14.41 17.39 18.30 16.97 18.81 19.71 20.68 22.93 26.87 28.87 29.92 30.13 31.94 30.09 30.26 32.07 31.63 31.16 32.64 32.60 31.50 30.55 30.05 28.52 27.79 28.09 27.21 27.89 27.84 27.00 25.91 26.22 27.21 28.04 27.15 26.73 25.25 23.58 22.18 21.93 22.16 21.81 19.32
9.41 11.78 14.00 14.65 16.65 17.39 18.73 19.94 21.22 26.25 28.20 28.54 30.90 29.47 29.30 29.51 30.99 31.99 32.63 29.09 28.21 28.32 26.61 25.46 24.50 24.24 24.18 24.22 23.83 23.24 22.30 22.17 23.89 23.66 23.45 23.31 23.09 22.23 22.01 20.73 20.32 20.01 18.06
5.99 7.97 10.46 13.85 15.00 16.01 17.22 18.50 20.32 21.36 22.20 25.03 27.71 27.39 26.50 26.70 26.73 29.91 30.66 27.49 24.40 21.92 20.63 20.50 19.99 20.29 20.30 20.42 20.46 20.40 20.26 20.34 19.86 20.09 19.72 19.87 20.46 20.87 20.17 19.25 18.67 17.71 16.67
8.23 10.98 11.60 12.62 13.50 14.15 14.95 16.84 19.00 20.98 22.64 23.83 24.10 24.09 22.89 23.31 21.90 22.36 24.03 24.15 20.24 17.92 16.89 16.03 16.51 16.81 16.82 17.35 17.34 16.73 16.54 15.45 16.09 16.79 16.34 16.20 17.10 18.02 16.30 16.12 14.00 12.03 13.45
8.47 7.78 8.62 10.67 12.44 13.46 15.08 16.68 18.30 20.69 22.14 22.40 21.42 21.50 21.50 20.17 19.20 16.11 16.49 17.30 16.23 15.00 14.32 13.56 13.07 13.36 13.60 14.36 14.61 14.54 14.04 13.54 13.25 13.02 12.36 12.73 13.24 14.46 12.86 12.22 12.52 12.30 11.19
7.59 8.50 8.33 9.52 11.96 13.17 14.17 15.28 17.79 20.71 21.44 20.44 19.07 20.12 18.05 17.81 14.59 13.26 12.01 11.59 11.84 11.60 10.61 9.96 8.97 8.54 8.87 9.42 10.42 10.16 9.61 9.45 8.66 8.71 9.12 8.51 8.67 8.42 8.10 8.66 7.97 6.52 6.83
7.63 8.67 9.48 9.65 11.07 12.30 13.95 15.49 17.61 20.27 20.05 17.36 15.34 15.88 14.50 12.68 11.24 9.77 8.34 6.98 6.05 5.90 6.28 6.79 5.79 4.89 4.47 5.35 6.65 7.93 6.98 5.78 5.23 4.96 4.29 2.80 4.61 4.47 5.07 4.80 5.25 4.37 4.03
7.93 7.88 8.86 10.10 11.35 11.63 13.33 15.50 16.24 17.62 16.91 15.26 13.34 11.64 10.76 9.67 8.55 7.60 6.04 5.07 4.82 4.42 4.20 4.88 4.55 2.69 1.91 1.52 1.67 2.87 4.72 4.04 3.08 2.01 2.73 2.63 2.58 3.50 4.34 4.72 2.51 2.45 3.08
6.74 7.22 8.01 8.85 9.83 10.12 11.49 12.16 12.46 11.68 12.23 11.55 10.68 9.62 8.54 7.80 7.14 5.32 4.85 4.39 3.81 3.00 2.47 2.01 1.96 1.29 0.17 -0.48 -0.71 -1.63 -1.80 -2.35 -2.64 -1.84 -0.90 1.83 1.31 -0.74 1.84 0.41 1.32 -0.32 1.12
5.40 5.70 6.08 6.58 7.03 7.65 8.91 9.29 9.15 9.01 8.64 8.67 7.83 7.01 6.41 6.05 5.51 4.89 4.09 3.50 2.30 2.47 1.62 0.59 0.20 -0.37 -1.60 -3.57 -3.55 -4.34 -4.69 -1.09 -5.57 -6.86 -3.94 -1.60 -0.91 -2.58 -2.47 -0.60 -0.89 -0.58 -1.04
3.77 4.14 4.52 4.97 4.92 5.36 5.86 6.33 6.37 6.35 6.01 6.10 5.84 5.60 5.29 5.11 5.00 4.30 3.54 2.28 1.63 1.23 0.71 0.27 -0.58 -2.67 -3.61 -3.81 -4.34 -4.49 -7.32 -3.16 -5.69 -10.89 -3.72 -1.23 -1.91 -2.47 -3.25 -2.92 -4.78 -1.78 -1.94
MSLP
1022.77 1022.90 1022.83 1022.81 1022.70 1022.51 1022.57 1022.53 1022.55 1022.21 1021.86 1021.57 1021.29 1020.98 1020.64 1020.21 1019.85 1019.69 1019.43 1019.11 1018.72 1018.28 1017.98 1017.74 1017.35 1017.29 1016.92 1016.84 1016.73 1016.71 1016.45 1016.47 1015.79 1013.02 1014.52 1014.67 1014.94 1015.12 1015.22 1015.27 1015.37 1015.32 1015.32
1023.29 1023.36 1023.40 1023.36 1023.27 1023.25 1023.18 1023.09 1023.03 1022.77 1022.35 1022.06 1021.71 1021.25 1020.91 1020.52 1020.13 1019.85 1019.44 1019.02 1018.60 1018.11 1017.77 1017.32 1016.78 1016.72 1016.28 1016.10 1015.84 1015.47 1015.42 1015.33 1015.09 1013.90 1013.62 1013.94 1014.27 1014.26 1014.39 1014.58 1014.72 1014.83 1014.68
1023.57 1023.51 1023.55 1023.58 1023.58 1023.61 1023.55 1023.56 1023.27 1022.90 1022.48 1022.25 1022.04 1021.63 1021.26 1020.92 1020.53 1020.04 1019.58 1019.04 1018.55 1018.08 1017.65 1017.27 1016.68 1016.48 1015.93 1015.73 1015.46 1015.06 1014.68 1014.23 1014.16 1013.81 1012.65 1013.19 1013.48 1013.86 1014.18 1014.27 1014.28 1014.19 1014.19
1023.89 1024.05 1024.19 1024.29 1024.24 1024.32 1024.28 1023.95 1023.61 1023.19 1022.72 1022.38 1022.05 1021.86 1021.40 1021.04 1020.65 1020.19 1019.69 1019.04 1018.51 1018.03 1017.63 1017.11 1016.65 1016.23 1015.74 1015.33 1014.92 1014.45 1014.23 1013.82 1013.48 1013.11 1012.66 1012.59 1013.00 1013.52 1013.78 1013.79 1013.79 1013.69 1013.65
1024.67 1024.77 1024.89 1024.91 1024.92 1024.67 1024.40 1024.18 1023.82 1023.42 1023.12 1022.73 1022.21 1021.74 1021.33 1020.87 1020.53 1020.13 1019.67 1019.08 1018.44 1017.74 1017.24 1016.83 1016.32 1015.80 1015.48 1015.14 1014.73 1013.98 1013.70 1013.29 1013.01 1012.69 1012.30 1012.26 1012.38 1012.98 1012.96 1012.96 1013.12 1012.97 1013.18
1025.14 1025.38 1025.43 1025.33 1025.21 1025.01 1024.76 1024.43 1024.09 1023.68 1023.31 1022.99 1022.43 1021.95 1021.37 1020.87 1020.50 1020.07 1019.58 1018.88 1018.28 1017.64 1016.95 1016.33 1015.87 1015.29 1014.80 1014.46 1014.14 1013.70 1013.54 1013.07 1012.74 1012.57 1012.06 1011.66 1011.44 1011.76 1012.12 1012.28 1012.62 1012.99 1013.08
1025.70 1025.91 1025.78 1025.61 1025.32 1025.10 1024.89 1024.54 1024.10 1023.73 1023.38 1022.95 1022.41 1021.87 1021.28 1020.63 1020.20 1019.66 1019.24 1018.67 1017.91 1017.15 1016.66 1016.05 1015.31 1014.92 1014.55 1014.12 1013.51 1013.11 1012.91 1012.54 1012.31 1012.14 1011.47 1011.14 1010.84 1011.04 1011.25 1011.75 1011.89 1012.17 1012.25
1025.64 1025.82 1025.86 1025.69 1025.48 1025.19 1024.92 1024.50 1024.11 1023.72 1023.30 1022.69 1022.12 1021.70 1021.12 1020.51 1019.85 1019.33 1018.70 1018.20 1017.44 1016.92 1016.31 1015.81 1015.06 1014.55 1014.18 1013.80 1013.30 1012.80 1012.34 1011.98 1011.90 1011.54 1011.15 1010.47 1010.30 1010.24 1010.48 1011.01 1011.29 1011.80 1012.37
1025.69 1025.76 1025.79 1025.77 1025.65 1025.31 1024.99 1024.54 1024.19 1023.74 1023.27 1022.72 1021.95 1021.24 1020.75 1019.92 1019.33 1018.83 1018.36 1017.75 1017.01 1016.42 1016.02 1015.41 1014.92 1014.43 1013.92 1013.53 1013.06 1012.49 1011.77 1011.45 1011.31 1010.93 1010.62 1010.16 1010.10 1009.89 1010.07 1010.94 1011.45 1011.77 1012.16
1025.72 1025.73 1025.65 1025.46 1025.45 1025.25 1024.79 1024.38 1024.05 1023.63 1023.02 1022.43 1021.55 1020.89 1020.26 1019.65 1019.04 1018.62 1018.06 1017.39 1016.34 1015.89 1015.43 1015.04 1014.60 1014.09 1013.63 1013.29 1012.87 1012.28 1011.59 1011.32 1011.01 1010.79 1010.51 1010.14 1010.10 1010.06 1010.25 1010.79 1011.45 1011.77 1012.18
1026.03 1025.96 1025.94 1025.63 1025.44 1025.06 1024.56 1024.00 1023.56 1023.01 1022.48 1021.85 1021.31 1020.80 1020.20 1019.56 1018.66 1018.25 1017.70 1017.14 1016.58 1015.81 1015.19 1014.46 1014.20 1013.90 1013.36 1012.80 1012.45 1012.07 1011.52 1011.24 1011.01 1010.80 1010.50 1010.48 1010.62 1010.69 1011.11 1011.27 1011.54 1011.79 1012.21
1026.36 1026.28 1026.04 1025.70 1025.29 1024.74 1024.20 1023.60 1023.02 1022.57 1021.96 1021.39 1020.86 1020.17 1019.68 1019.27 1018.74 1017.99 1017.45 1016.88 1016.18 1015.53 1015.03 1014.65 1014.24 1013.69 1013.06 1012.56 1012.07 1011.70 1011.32 1011.22 1011.24 1011.17 1010.84 1010.85 1011.04 1011.52 1011.65 1012.06 1012.37 1012.75 1012.77
1026.61 1026.37 1026.12 1025.73 1025.22 1024.71 1024.11 1023.26 1022.66 1022.09 1021.57 1020.76 1020.61 1020.02 1019.24 1018.73 1018.18 1017.59 1016.98 1016.42 1015.82 1015.40 1015.01 1014.61 1014.10 1013.66 1013.07 1012.60 1012.23 1011.88 1011.64 1011.53 1011.51 1011.53 1011.61 1011.55 1011.75 1011.98 1012.77 1013.20 1013.53 1013.83 1014.16
1026.83 1026.46 1026.10 1025.50 1024.79 1024.31 1023.72 1022.99 1022.28 1021.66 1021.05 1020.61 1020.09 1019.46 1018.82 1018.15 1017.61 1017.21 1016.77 1016.24 1015.88 1015.49 1015.04 1014.38 1014.07 1013.73 1013.21 1012.92 1012.62 1012.37 1012.14 1011.94 1011.88 1012.06 1012.39 1012.50 1012.69 1012.99 1013.35 1013.84 1014.13 1014.38 1014.96
1027.17 1026.54 1025.83 1025.42 1024.83 1024.00 1023.18 1022.55 1021.89 1021.20 1020.77 1020.17 1019.58 1019.21 1018.66 1017.80 1017.17 1017.01 1016.53 1016.19 1015.83 1015.43 1015.13 1014.55 1014.01 1013.77 1013.55 1013.37 1013.18 1013.02 1012.69 1012.53 1012.49 1012.71 1013.14 1013.34 1013.47 1013.78 1014.16 1014.34 1014.53 1014.76 1015.26
1027.16 1026.46 1025.98 1025.28 1024.40 1023.82 1022.93 1021.84 1021.30 1020.38 1019.94 1019.57 1019.01 1018.89 1018.47 1017.60 1017.11 1016.78 1016.41 1016.12 1015.79 1015.49 1015.24 1015.05 1014.75 1014.58 1014.53 1014.43 1014.21 1014.19 1013.99 1013.89 1013.83 1013.68 1013.81 1014.02 1014.22 1014.52 1014.77 1015.05 1015.09 1015.25 1015.66
1027.47 1026.88 1026.04 1025.35 1024.65 1024.00 1023.06 1022.09 1020.72 1019.70 1019.36 1018.85 1018.45 1018.48 1018.31 1017.84 1017.08 1016.60 1016.38 1016.37 1016.25 1015.99 1015.93 1016.02 1016.05 1015.83 1015.67 1015.53 1015.41 1015.43 1015.30 1015.29 1015.18 1014.93 1015.01 1015.11 1015.04 1015.30 1015.46 1015.57 1015.71 1016.06 1016.50
1027.19 1026.53 1025.85 1025.03 1024.24 1023.39 1022.77 1021.99 1021.09 1019.96 1018.89 1018.30 1018.10 1018.15 1018.04 1017.76 1017.30 1016.61 1016.30 1016.40 1016.62 1016.92 1017.19 1017.14 1017.21 1017.07 1016.84 1016.64 1016.57 1016.59 1016.45 1016.30 1016.29 1016.23 1016.02 1016.15 1016.10 1016.08 1016.22 1016.41 1016.59 1016.77 1017.10
1026.53 1025.58 1024.90 1024.21 1023.71 1023.16 1022.50 1021.58 1020.74 1019.86 1018.99 1018.25 1017.99 1017.91 1018.01 1017.90 1017.71 1017.37 1016.95 1016.84 1017.35 1017.72 1018.06 1018.18 1018.20 1018.10 1017.93 1017.75 1017.69 1017.71 1017.67 1017.55 1017.53 1017.45 1017.37 1017.28 1017.19 1017.10 1017.24 1017.40 1017.66 1017.84 1017.97
1025.58 1025.19 1024.72 1024.00 1023.13 1022.55 1021.89 1021.06 1020.20 1019.35 1018.53 1018.07 1017.94 1017.86 1017.90 1017.96 1017.82 1017.99 1017.97 1017.98 1018.21 1018.56 1018.85 1019.01 1019.18 1019.15 1019.03 1018.87 1018.80 1018.70 1018.63 1018.52 1018.47 1018.48 1018.49 1018.44 1018.38 1018.19 1018.22 1018.36 1018.48 1018.61 1018.83
1025.37 1024.72 1024.15 1023.60 1022.86 1022.12 1021.35 1020.58 1019.74 1018.86 1018.15 1018.00 1018.16 1018.17 1018.20 1018.11 1018.43 1018.66 1018.84 1019.05 1019.24 1019.44 1019.64 1019.78 1019.92 1020.05 1020.00 1019.84 1019.65 1019.54 1019.51 1019.47 1019.54 1019.56 1019.51 1019.48 1019.42 1019.36 1019.44 1019.39 1019.47 1019.57 1019.63
1024.99 1024.33 1023.78 1023.18 1022.43 1021.60 1020.92 1020.14 1019.33 1018.64 1018.31 1018.33 1018.55 1018.72 1018.96 1019.02 1019.09 1019.33 1019.64 1019.92 1020.18 1020.44 1020.59 1020.52 1020.60 1020.78 1020.81 1020.69 1020.48 1020.26 1020.21 1020.24 1020.34 1020.37 1020.33 1020.36 1020.26 1020.20 1020.13 1020.18 1020.20 1020.25 1020.40
1024.48 1024.10 1023.35 1022.62 1021.96 1021.38 1020.57 1019.82 1019.24 1018.86 1018.73 1018.87 1019.08 1019.36 1019.63 1019.79 1019.83 1019.97 1020.32 1020.58 1020.74 1020.92 1021.08 1021.03 1021.01 1021.19 1021.33 1021.32 1021.24 1021.01 1020.79 1020.85 1020.92 1021.03 1020.89 1020.85 1020.79 1020.66 1020.61 1020.61 1020.78 1020.84 1020.91
1024.28 1023.80 1023.24 1022.50 1021.88 1021.36 1020.88 1020.28 1019.86 1019.66 1019.57 1019.61 1019.78 1020.01 1020.22 1020.53 1020.53 1020.57 1020.75 1020.98 1021.15 1021.32 1021.40 1021.42 1021.42 1021.43 1021.58 1021.61 1021.59 1021.58 1021.52 1021.54 1021.65 1021.53 1021.37 1021.21 1021.12 1021.18 1021.17 1021.26 1021.20 1021.35 1021.39
1024.25 1023.78 1023.23 1022.95 1022.24 1021.71 1021.30 1020.92 1020.62 1020.42 1020.37 1020.39 1020.45 1020.58 1020.80 1021.04 1021.09 1021.07 1021.04 1021.12 1021.33 1021.34 1021.40 1021.48 1021.51 1021.57 1021.65 1021.73 1021.67 1021.67 1021.68 1021.56 1021.83 1021.84 1021.66 1021.48 1021.38 1021.48 1021.49 1021.42 1021.48 1021.59 1021.72
1024.31 1023.93 1023.56 1023.13 1022.74 1022.39 1022.00 1021.68 1021.36 1021.09 1021.07 1020.96 1021.02 1021.07 1021.09 1021.22 1021.25 1021.24 1021.18 1021.23 1021.28 1021.29 1021.32 1021.37 1021.40 1021.52 1021.57 1021.55 1021.51 1021.52 1021.60 1021.52 1021.64 1021.76 1021.56 1021.43 1021.43 1021.48 1021.60 1021.65 1021.84 1021.75 1021.81
Wind_Speed
9 9 9 8 9 8 8 8 9 8 9 9 10 10 11 11 11 11 12 13 14 14 12 11 14 13 10 10 9 10 11 10 14 18 11 3 6 8 8 9 10 10 10
7 7 8 8 8 8 8 8 8 8 8 8 9 8 9 10 11 12 13 12 14 15 15 14 15 10 13 13 10 12 12 12 11 21 13 9 8 8 7 8 8 8 9
8 8 8 9 10 10 10 9 9 9 9 9 9 10 10 10 11 11 12 13 14 14 15 14 14 13 12 10 10 12 11 10 11 12 16 9 3 2 4 5 6 8 6
8 9 9 10 9 9 9 10 10 10 10 10 10 9 9 10 10 10 11 12 13 13 12 12 13 13 13 11 11 12 12 12 10 10 12 10 5 2 3 4 6 6 7
6 6 7 7 7 7 8 9 9 9 9 9 10 11 11 9 7 12 11 12 12 12 12 12 12 13 15 15 11 12 10 10 10 10 10 9 5 4 6 3 6 3 5
3 3 4 5 6 6 8 8 9 9 9 10 10 10 12 8 15 18 14 12 13 12 12 12 11 11 13 17 18 19 15 10 10 9 11 12 12 5 4 5 4 3 4
1 1 3 4 5 6 6 7 8 9 9 9 10 11 12 12 16 19 18 11 12 12 13 13 12 8 9 11 14 18 17 17 18 12 13 13 14 5 5 5 6 6 5
3 4 5 7 7 8 8 8 9 8 10 10 10 11 12 10 17 19 18 13 12 13 12 13 13 13 11 10 11 11 11 10 10 8 11 12 9 6 8 4 5 4 3
4 5 6 7 8 9 8 9 9 9 10 10 9 10 11 11 18 19 17 11 11 13 11 11 11 13 14 17 12 12 11 10 8 15 17 17 10 10 8 5 6 6 3
7 8 8 8 8 10 10 11 8 10 11 10 13 10 12 13 17 19 17 9 12 10 11 11 13 14 16 17 10 10 11 9 5 5 3 3 2 3 11 3 5 5 2
6 7 8 8 9 9 10 9 9 9 9 9 12 11 11 12 13 20 20 10 10 11 9 7 6 14 17 17 16 7 8 6 6 4 0 3 4 5 4 3 2 3 1
6 8 9 8 8 8 10 10 9 9 10 10 11 11 8 9 14 15 18 17 17 9 7 6 7 16 17 17 12 10 8 4 2 1 2 4 5 5 6 7 9 9 8
6 7 8 9 9 9 10 10 10 10 9 9 9 9 10 9 8 15 14 15 7 7 7 11 17 15 13 9 8 6 4 2 1 2 3 5 5 7 6 6 8 10 11
8 9 9 9 10 9 8 8 8 7 8 9 8 9 10 8 8 7 6 5 8 8 9 7 8 9 6 6 4 5 3 3 3 4 4 5 4 4 5 3 4 4 4
7 8 9 8 9 10 9 9 8 9 10 9 7 7 8 9 8 10 11 4 5 6 7 4 4 3 4 5 6 6 5 4 5 5 4 4 4 4 5 4 4 4 4
8 7 7 8 8 9 10 10 14 19 20 20 20 10 7 14 15 12 10 8 6 7 2 4 5 5 5 6 6 6 7 7 6 5 5 4 4 4 4 4 4 4 5
7 9 8 8 8 9 9 9 11 9 16 17 16 12 11 11 12 10 3 8 10 4 4 4 4 5 5 5 6 6 6 6 6 6 6 5 4 4 3 4 4 4 5
7 10 8 7 8 8 9 10 9 10 9 8 8 9 7 7 8 8 7 4 3 6 4 4 4 4 5 5 5 5 5 5 6 5 6 5 5 4 4 4 4 4 4
7 7 7 7 8 9 9 10 9 10 9 8 5 6 3 4 4 7 8 3 4 4 3 4 4 4 4 4 4 5 5 5 5 4 5 5 5 4 4 4 4 5 4
7 9 9 8 8 9 9 9 9 9 9 6 5 5 3 3 1 2 4 4 4 4 3 4 3 3 4 4 4 3 3 4 4 4 4 3 3 3 3 3 3 2 3
6 7 9 8 8 8 8 9 9 9 7 4 2 3 2 2 3 3 3 4 4 4 4 3 3 3 3 3 3 3 3 3 3 3 3 3 3 2 3 3 3 3 3
6 7 7 8 8 9 9 9 9 8 5 4 2 3 4 3 3 4 4 4 3 3 3 2 2 2 3 3 3 2 2 1 1 1 2 2 2 2 2 3 3 3 3
5 7 7 7 7 9 8 7 7 5 2 2 2 1 1 2 3 3 3 3 3 2 2 2 1 1 1 2 2 3 1 1 1 1 1 1 1 2 1 2 2 2 2
5 6 7 6 6 7 7 6 4 4 2 1 1 1 2 1 2 3 3 2 1 1 0 0 0 1 0 1 1 1 1 1 0 0 1 1 2 2 2 2 2 2 2
4 5 5 6 6 5 6 5 4 3 3 2 2 2 1 1 1 1 1 1 1 2 2 2 2 3 4 4 4 4 3 4 3 1 1 1 2 3 2 1 2 2 2
4 5 4 4 4 5 5 4 3 3 3 2 2 1 1 1 2 2 2 2 3 3 4 3 4 6 6 5 7 7 6 7 6 7 4 3 3 3 2 2 3 2 3
Wind_Direction
51 47 49 46 42 42 34 23 7 356 358 351 341 330 322 316 310 300 290 287 280 276 264 251 250 246 244 243 231 233 236 230 249 275 269 262 205 216 227 228 239 239 245
56 55 50 46 40 35 27 15 4 352 353 348 341 334 327 321 315 307 299 292 287 282 278 274 268 260 249 248 244 242 239 237 243 266 263 255 215 215 229 227 230 236 240
47 47 43 36 29 22 15 6 1 355 354 351 345 340 332 324 314 306 300 296 291 285 284 282 280 273 267 265 255 256 249 243 243 251 267 262 214 180 224 234 229 238 240
38 35 30 22 16 8 358 357 355 351 348 345 344 333 329 322 316 312 304 300 293 287 287 282 282 280 276 272 265 260 257 256 250 250 258 264 239 178 220 215 244 225 242
41 34 24 10 2 356 354 348 345 344 340 336 331 331 328 323 323 322 313 304 293 287 279 275 270 270 274 274 275 274 262 253 257 258 257 259 229 203 211 194 241 234 228
64 41 6 351 344 344 338 336 333 332 331 329 326 322 320 314 312 314 311 304 298 293 288 283 273 266 270 273 275 273 267 264 263 264 269 264 262 241 194 206 207 176 250
50 21 351 341 338 337 327 324 326 325 322 319 316 317 312 310 305 308 308 299 294 290 289 287 286 275 264 273 278 280 281 275 266 272 267 259 267 231 182 202 198 213 234
19 4 354 346 337 332 327 324 325 323 319 314 307 303 303 300 302 306 307 297 292 289 287 285 287 292 285 280 281 277 271 267 267 269 264 273 258 187 195 208 209 173 108
15 357 351 347 332 331 329 330 327 324 319 313 307 303 298 297 308 311 313 301 291 292 291 292 291 291 291 292 287 283 283 275 263 270 280 285 246 215 173 139 165 167 156
358 341 335 333 327 321 321 319 310 313 311 315 313 306 300 298 308 313 316 302 302 301 302 297 283 292 302 302 294 287 283 291 276 282 304 326 319 219 171 155 164 178 114
337 329 323 321 311 298 294 295 290 291 292 304 307 305 298 297 307 314 312 304 297 299 298 299 301 309 310 304 297 287 288 300 286 268 211 73 67 82 83 81 99 121 71
331 317 311 308 305 302 295 293 287 285 286 299 306 309 308 307 303 308 311 306 302 295 304 307 303 307 312 311 308 298 300 290 271 236 115 91 89 71 64 62 66 62 43
321 307 304 306 300 298 298 297 296 293 286 300 300 300 308 310 301 308 313 320 350 318 307 305 311 311 318 321 348 351 26 7 6 56 64 66 66 92 83 69 71 75 61
310 307 305 302 309 302 295 291 287 284 282 290 289 299 305 301 305 311 311 314 314 319 317 313 315 316 6 10 6 21 27 38 59 76 74 80 77 65 69 61 71 70 76
296 296 299 294 295 299 291 290 281 269 265 281 277 295 307 303 309 307 304 306 309 316 323 328 1 2 13 22 34 31 35 48 69 71 68 69 78 77 64 66 79 62 76
303 302 304 302 304 299 297 295 276 275 277 282 271 280 295 298 297 297 302 315 342 341 0 13 28 31 35 23 30 36 37 33 31 49 56 57 62 69 77 64 59 78 99
290 295 294 289 291 292 293 295 300 293 287 280 264 263 292 316 340 282 250 75 34 25 46 32 29 31 31 35 38 32 35 27 24 41 43 44 62 65 63 72 73 84 86
266 266 270 281 287 294 293 291 289 290 294 288 259 253 268 302 344 358 130 106 58 48 48 46 40 32 33 38 38 34 35 35 39 39 50 44 46 58 69 62 57 76 92
291 293 297 295 290 288 289 284 280 278 276 270 273 262 248 292 29 26 40 96 113 93 73 63 38 31 33 38 41 42 39 41 34 37 39 38 34 45 64 66 74 64 88
295 289 289 296 294 291 288 284 281 276 272 263 262 277 279 248 232 47 58 85 97 96 86 77 52 40 39 37 36 37 46 41 41 45 44 37 31 36 66 67 54 95 74
292 294 290 287 287 289 287 285 282 279 267 245 257 329 288 186 129 104 91 73 76 82 80 76 65 47 31 29 36 48 49 53 40 39 36 35 19 61 42 55 72 65 79
286 292 293 291 293 293 291 292 288 281 252 211 169 52 67 88 107 105 98 89 80 70 53 69 71 48 26 21 12 32 44 59 53 46 67 50 52 70 65 72 73 82 89
301 299 298 297 297 299 293 296 298 289 253 191 156 143 79 87 100 100 97 97 91 87 60 53 87 89 42 10 1 349 343 32 37 5 106 105 110 107 91 110 116 110 112
315 313 311 312 316 316 315 317 324 347 359 63 93 87 87 91 106 112 115 112 110 101 74 41 350 291 226 264 278 295 338 29 348 348 347 184 136 140 138 135 136 110 137
328 328 331 329 331 334 329 335 345 359 17 28 53 66 70 87 143 165 159 174 214 234 230 237 241 240 240 242 250 252 246 244 228 229 206 227 176 176 155 148 142 153 168
331 332 330 328 334 342 341 337 344 355 356 11 13 8 339 290 275 260 242 241 246 246 249 246 244 241 249 249 249 245 245 238 223 217 215 209 197 191 191 196 188 210 199